Troy, MI

9:20 PM EDT on April 23, 2018 (GMT -0400)
Troy

Weather History for KVLL - August, 2012

Change the Weather History Date:

Wednesday, August 1, 2012

  Actual Average (KDET) Record (KDET)
Temperature  
Mean Temperature 74 °F -  
Max Temperature 83 °F 83 °F 98 °F (1988)
Min Temperature 65 °F 65 °F 54 °F (1952)
Cooling Degree Days 9    
Growing Degree Days 24 (Base 50)    
Moisture  
Dew Point 58 °F    
Average Humidity 58    
Maximum Humidity 85    
Minimum Humidity 36    
Precipitation  
Precipitation 0.00 in - - ()
Sea Level Pressure  
Sea Level Pressure 29.94 in    
Wind  
Wind Speed 3 mph (NNW)    
Max Wind Speed 8 mph    
Max Gust Speed 17 mph    
Visibility 10 miles    
Events      
Averages and records for this station are not official NWS values.
T = Trace of Precipitation, MM = Missing Value Source: NWS Daily Summary

Daily Weather History Graph

Daily Weather History Graph

Search for Another Location

Airport or City:

Astronomy

Aug. 01, 2012 Rise Set
Actual Time 6:25 AM EDT 8:52 PM EDT
Civil Twilight 5:53 AM EDT 9:23 PM EDT
Nautical Twilight 5:13 AM EDT 10:03 PM EDT
Astronomical Twilight 4:29 AM EDT 10:47 PM EDT
Moon 8:19 PM EDT (8/1) 5:53 AM EDT (8/1)
Length of Visible Light 15h 30m
Length of Day
14h 26m
Full, 100% of the Moon is Illuminated
Aug 1
Full
Aug 1
Full
Aug 9
Last Quarter
Aug 17
New
Aug 24
First Quarter

Hourly Weather History & Observations

Time (EDT) Temp. Heat Index Dew Point Humidity Pressure Visibility Wind Dir Wind Speed Gust Speed Precip Events Conditions
12:35 AM 73.0 °F - 61.2 °F 66% 29.95 in 10.0 mi Calm Calm - N/A   Clear
1:15 AM 72.1 °F - 61.2 °F 68% 29.95 in 10.0 mi North 3.5 mph - N/A   Clear
1:35 AM 71.2 °F - 61.7 °F 72% 29.95 in 10.0 mi North 4.6 mph - N/A   Clear
2:15 AM 70.2 °F - 62.2 °F 76% 29.94 in 10.0 mi Calm Calm - N/A   Clear
2:35 AM 70.2 °F - 62.1 °F 75% 29.94 in 10.0 mi NNW 4.6 mph - N/A   Clear
2:55 AM 70.0 °F - 61.7 °F 75% 29.94 in 10.0 mi Calm Calm - N/A   Clear
3:15 AM 69.8 °F - 61.7 °F 75% 29.94 in 10.0 mi Calm Calm - N/A   Clear
3:35 AM 69.3 °F - 61.7 °F 77% 29.93 in 10.0 mi Calm Calm - N/A   Clear
3:54 AM 68.2 °F - 61.7 °F 80% 29.93 in 10.0 mi Calm Calm - N/A   Clear
4:15 AM 68.2 °F - 61.7 °F 80% 29.93 in 10.0 mi Calm Calm - N/A   Clear
4:35 AM 67.6 °F - 61.3 °F 80% 29.94 in 10.0 mi WNW 4.6 mph - N/A   Clear
4:54 AM 67.1 °F - 61.3 °F 82% 29.94 in 10.0 mi WNW 4.6 mph - N/A   Clear
5:15 AM 67.1 °F - 61.2 °F 81% 29.94 in 10.0 mi WNW 4.6 mph - N/A   Clear
5:34 AM 66.6 °F - 61.0 °F 82% 29.94 in 10.0 mi WNW 4.6 mph - N/A   Clear
5:55 AM 66.2 °F - 60.8 °F 83% 29.95 in 10.0 mi Calm Calm - N/A   Clear
6:15 AM 66.0 °F - 60.8 °F 83% 29.95 in 10.0 mi Calm Calm - N/A   Clear
6:34 AM 65.7 °F - 60.8 °F 84% 29.95 in 10.0 mi Calm Calm - N/A   Clear
6:55 AM 65.5 °F - 60.8 °F 85% 29.95 in 10.0 mi Calm Calm - N/A   Clear
7:15 AM 65.7 °F - 61.0 °F 85% 29.95 in 10.0 mi Calm Calm - N/A   Clear
7:35 AM 66.4 °F - 61.0 °F 83% 29.95 in 10.0 mi Calm Calm - N/A   Clear
7:55 AM 67.3 °F - 61.7 °F 82% 29.96 in 10.0 mi North 3.5 mph - N/A   Clear
8:15 AM 68.0 °F - 61.7 °F 80% 29.96 in 10.0 mi Calm Calm - N/A   Clear
8:35 AM 68.4 °F - 61.7 °F 79% 29.96 in 10.0 mi NNW 3.5 mph - N/A   Clear
8:55 AM 69.4 °F - 62.1 °F 77% 29.96 in 10.0 mi Calm Calm - N/A   Clear
9:15 AM 70.7 °F - 62.8 °F 76% 29.96 in 10.0 mi Calm Calm - N/A   Clear
9:35 AM 72.0 °F - 63.0 °F 73% 29.96 in 10.0 mi WNW 4.6 mph - N/A   Clear
9:55 AM 73.2 °F - 63.1 °F 71% 29.96 in 10.0 mi West 4.6 mph - N/A   Clear
10:15 AM 73.4 °F - 62.8 °F 69% 29.96 in 10.0 mi WNW 6.9 mph - N/A   Clear
10:35 AM 74.7 °F - 62.6 °F 66% 29.96 in 10.0 mi NW 8.1 mph - N/A   Clear
10:55 AM 74.7 °F - 61.7 °F 64% 29.96 in 10.0 mi NW 4.6 mph - N/A   Clear
11:15 AM 75.9 °F - 60.4 °F 59% 29.97 in 10.0 mi North 4.6 mph - N/A   Scattered Clouds
11:35 AM 76.8 °F - 60.6 °F 57% 29.97 in 10.0 mi NW 6.9 mph - N/A   Scattered Clouds
11:55 AM 78.1 °F - 59.5 °F 53% 29.97 in 10.0 mi NNW 5.8 mph - N/A   Scattered Clouds
12:15 PM 77.9 °F - 54.1 °F 44% 29.97 in 10.0 mi NNW 5.8 mph - N/A   Clear
12:35 PM 79.2 °F - 57.0 °F 46% 29.96 in 10.0 mi NW 6.9 mph - N/A   Scattered Clouds
12:55 PM 77.9 °F - 53.2 °F 42% 29.96 in 10.0 mi NW 6.9 mph - N/A   Scattered Clouds
1:15 PM 79.3 °F - 50.0 °F 36% 29.96 in 10.0 mi WNW 3.5 mph 9.2 mph N/A   Scattered Clouds
1:34 PM 79.9 °F - 52.0 °F 38% 29.96 in 10.0 mi WNW 6.9 mph - N/A   Clear
1:55 PM 80.2 °F 80.0 °F 53.1 °F 39% 29.95 in 10.0 mi North 6.9 mph - N/A   Clear
2:15 PM 80.4 °F - 52.2 °F 37% 29.95 in 10.0 mi North 3.5 mph 17.3 mph N/A   Clear
2:35 PM 81.5 °F 81.3 °F 56.5 °F 42% 29.95 in 10.0 mi North 5.8 mph - N/A   Clear
2:55 PM 80.8 °F 80.7 °F 55.9 °F 42% 29.95 in 10.0 mi NE 4.6 mph - N/A   Clear
3:14 PM 81.9 °F 81.4 °F 55.8 °F 41% 29.94 in 10.0 mi NNE 8.1 mph - N/A   Clear
3:35 PM 82.4 °F 81.4 °F 53.4 °F 37% 29.93 in 10.0 mi East 3.5 mph - N/A   Clear
3:55 PM 82.9 °F 81.8 °F 53.4 °F 36% 29.93 in 10.0 mi East 3.5 mph - N/A   Clear
4:15 PM 83.3 °F 82.3 °F 55.0 °F 38% 29.93 in 10.0 mi North 4.6 mph - N/A   Clear
4:35 PM 82.8 °F 82.0 °F 55.2 °F 39% 29.93 in 10.0 mi NNW 5.8 mph - N/A   Clear
4:55 PM 82.4 °F 81.8 °F 55.6 °F 40% 29.92 in 10.0 mi Calm Calm - N/A   Clear
5:15 PM 82.8 °F 81.9 °F 55.0 °F 38% 29.92 in 10.0 mi Calm Calm - N/A   Clear
5:35 PM 82.9 °F 81.8 °F 53.4 °F 36% 29.93 in 10.0 mi West 3.5 mph - N/A   Clear
5:54 PM 83.8 °F 82.7 °F 55.0 °F 37% 29.92 in 10.0 mi Calm Calm - N/A   Clear
6:15 PM 82.8 °F 81.7 °F 54.0 °F 37% 29.91 in 10.0 mi North 8.1 mph - N/A   Clear
6:35 PM 82.2 °F 81.4 °F 54.1 °F 38% 29.91 in 10.0 mi North 3.5 mph - N/A   Clear
6:55 PM 82.2 °F 81.4 °F 54.5 °F 38% 29.91 in 10.0 mi North 4.6 mph - N/A   Clear
7:15 PM 82.2 °F 81.5 °F 55.2 °F 39% 29.91 in 10.0 mi NW 6.9 mph - N/A   Clear
7:35 PM 82.0 °F 81.3 °F 54.0 °F 38% 29.92 in 10.0 mi WNW 5.8 mph - N/A   Clear
7:55 PM 81.1 °F - 52.7 °F 37% 29.92 in 10.0 mi NW 5.8 mph - N/A   Clear
8:15 PM 81.3 °F - 52.9 °F 37% 29.92 in 10.0 mi NW 6.9 mph - N/A   Clear
8:35 PM 79.9 °F - 54.0 °F 41% 29.92 in 10.0 mi Calm Calm - N/A   Clear
8:55 PM 78.8 °F - 54.9 °F 44% 29.92 in 10.0 mi Calm Calm - N/A   Clear
9:15 PM 78.3 °F - 55.0 °F 45% 29.93 in 10.0 mi NNW 4.6 mph - N/A   Clear
9:35 PM 77.7 °F - 55.8 °F 47% 29.93 in 7.0 mi NNW 3.5 mph - N/A   Clear
9:55 PM 77.2 °F - 56.3 °F 48% 29.93 in 10.0 mi NNW 3.5 mph - N/A   Clear
10:35 PM 75.7 °F - 56.5 °F 51% 29.94 in 10.0 mi NNW 4.6 mph - N/A   Clear
10:55 PM 74.8 °F - 55.6 °F 51% 29.93 in 10.0 mi Calm Calm - N/A   Clear
11:15 PM 74.5 °F - 55.8 °F 52% 29.93 in 10.0 mi Calm Calm - N/A   Clear
11:34 PM 73.0 °F - 56.5 °F 56% 29.93 in 10.0 mi Calm Calm - N/A   Clear
11:55 PM 72.7 °F - 56.3 °F 56% 29.93 in 10.0 mi Calm Calm - N/A   Clear